Weather History for Jamestown, ND

Change the Weather History Date:

Tuesday, April 30, 2013

  Actual Average Record
Temperature  
Mean Temperature 42 °F 49 °F  
Max Temperature 52 °F 63 °F 97 °F (1992)
Min Temperature 32 °F 36 °F 16 °F (1903)
Degree Days  
Heating Degree Days 23 16  
Month to date heating degree days 1000 677  
Since 1 July heating degree days 9306 8594  
Cooling Degree Days 0 0  
Month to date cooling degree days 0 2  
Year to date cooling degree days 0 2  
Moisture  
Dew Point 33 °F    
Average Humidity 67    
Maximum Humidity 93    
Minimum Humidity 41    
Precipitation  
Precipitation 0.14 in 0.06 in 1.18 in (1953)
Month to date precipitation 0.42 1.20  
Year to date precipitation 1.19 2.89  
Sea Level Pressure  
Sea Level Pressure 29.72 in    
Wind  
Wind Speed 22 mph (WNW)    
Max Wind Speed 37 mph    
Max Gust Speed 47 mph    
Visibility 10 miles    
Events Rain    
T = Trace of Precipitation, MM = Missing Value Source: NWS Daily Summary

Daily Weather History Graph

Daily Weather History Graph

Search for Another Location

Airport:

Trip Planner

Search our weather history database for the weather conditions in past years. The results will help you decide how hot, cold, wet, or windy it might be!

Date:

Astronomy

Apr. 30, 2013 Rise Set
Actual Time 6:20 AM CDT 8:44 PM CDT
Civil Twilight 5:46 AM CDT 9:17 PM CDT
Nautical Twilight 5:04 AM CDT 10:00 PM CDT
Astronomical Twilight 4:16 AM CDT 10:48 PM CDT
Moon 1:12 AM CDT (4/30) 10:47 AM CDT (4/30)
Length of Visible Light 15h 31m
Length of Day
14h 23m
Waning Gibbous, 70% of the Moon is Illuminated
Apr 30
Waning Gibbous
May 2
Last Quarter
May 9
New
May 17
First Quarter
May 24
Full

Hourly Weather History & Observations

Time (CDT) Temp. Windchill Dew Point Humidity Pressure Visibility Wind Dir Wind Speed Gust Speed Precip Events Conditions
12:56 AM 48.0 °F - 45.0 °F 89% 29.47 in 8.0 mi North 13.8 mph - 0.06 in Rain Light Rain
1:56 AM 46.9 °F - 45.0 °F 93% 29.42 in 10.0 mi NNW 15.0 mph - 0.03 in Rain Light Rain
2:56 AM 48.0 °F - 46.0 °F 93% 29.39 in 10.0 mi NNW 6.9 mph - 0.01 in Rain Light Rain
3:56 AM 48.0 °F - 46.0 °F 93% 29.44 in 8.0 mi West 12.7 mph - 0.05 in Rain Light Rain
4:56 AM 48.0 °F - 45.0 °F 89% 29.44 in 10.0 mi West 4.6 mph - 0.05 in Rain Light Rain
5:56 AM 48.0 °F - 44.1 °F 86% 29.44 in 10.0 mi WSW 6.9 mph - 0.00 in   Overcast
6:56 AM 46.9 °F - 39.0 °F 74% 29.48 in 10.0 mi West 15.0 mph 23.0 mph N/A   Overcast
7:56 AM 46.9 °F - 37.9 °F 71% 29.52 in 10.0 mi West 18.4 mph - N/A   Partly Cloudy
8:56 AM 48.0 °F - 35.1 °F 61% 29.55 in 10.0 mi West 20.7 mph 29.9 mph N/A   Clear
9:56 AM 48.9 °F - 33.1 °F 54% 29.56 in 10.0 mi West 26.5 mph 34.5 mph N/A   Clear
10:56 AM 50.0 °F - 34.0 °F 54% 29.58 in 10.0 mi West 25.3 mph 36.8 mph N/A   Mostly Cloudy
11:56 AM 50.0 °F - 34.0 °F 54% 29.62 in 10.0 mi West 29.9 mph 39.1 mph N/A   Mostly Cloudy
12:56 PM 50.0 °F - 33.1 °F 52% 29.65 in 10.0 mi West 31.1 mph 41.4 mph N/A   Mostly Cloudy
1:56 PM 51.1 °F - 28.9 °F 43% 29.68 in 10.0 mi West 32.2 mph 41.4 mph N/A   Partly Cloudy
2:56 PM 51.1 °F - 30.9 °F 46% 29.73 in 10.0 mi WNW 26.5 mph 36.8 mph N/A   Mostly Cloudy
3:56 PM 48.0 °F - 28.9 °F 48% 29.77 in 10.0 mi WNW 27.6 mph 39.1 mph N/A   Overcast
4:56 PM 46.9 °F - 28.9 °F 50% 29.79 in 10.0 mi WNW 27.6 mph 39.1 mph N/A   Partly Cloudy
5:56 PM 45.0 °F 36.2 °F 27.0 °F 49% 29.85 in 10.0 mi WNW 24.2 mph 33.4 mph N/A   Partly Cloudy
6:56 PM 39.9 °F 29.7 °F 26.1 °F 58% 29.94 in 10.0 mi WNW 23.0 mph 33.4 mph N/A   Overcast
7:56 PM 37.0 °F 25.4 °F 25.0 °F 62% 29.99 in 10.0 mi WNW 25.3 mph 35.7 mph N/A   Mostly Cloudy
8:56 PM 36.0 °F 24.4 °F 23.0 °F 59% 30.02 in 10.0 mi WNW 23.0 mph - N/A   Mostly Cloudy
9:56 PM 35.1 °F 22.5 °F 21.9 °F 59% 30.05 in 10.0 mi WNW 26.5 mph 36.8 mph N/A   Overcast
10:21 PM 33.8 °F 23.2 °F 23.0 °F 65% 30.04 in 10.0 mi NW 17.3 mph 32.2 mph N/A   Overcast
10:56 PM 34.0 °F 20.3 °F 21.9 °F 61% 30.09 in 10.0 mi WNW 29.9 mph 38.0 mph N/A   Overcast
11:44 PM 32.0 °F 19.5 °F 21.2 °F 64% 30.09 in 10.0 mi NW 21.9 mph 28.8 mph N/A   Overcast
11:56 PM 32.0 °F 20.5 °F 21.9 °F 66% 30.13 in 10.0 mi NW 18.4 mph 27.6 mph N/A   Overcast